Location: Carter Cabin
(41.0271°N, 122.9339°W)
Time: 14:20:57
(UTC+00:00)

Cosmos 1975 - Pass Details

Date: 13 April 2024
Orbit: 514 x 533 km, 82.5° (Epoch: 21 May)

Event Time Altitude Azimuth Distance (km) Brightness Sun altitude
Rises 12:42:37 0° 340° (NNW) 2,643 6.3 -10.2°
Maximum altitude 12:48:13 26° 270° (W) 1,036 3.7 -9.2°
Drops below altitude 10° 12:51:27 10° 212° (SSW) 1,749 4.9 -8.6°
Sets 12:53:48 0° 200° (SSW) 2,636 5.9 -8.2°
